Location: Newark
(52.5667°N, 8.8000°W)
Time: 22:15:17
(UTC+00:00)

N. Korean satellite - Pass Details

Date: 29 January 2020
Orbit: 456 x 505 km, 97.2° (Epoch: 19 February)

Event Time Altitude Azimuth Distance (km) Brightness Sun altitude
Rises 07:05:55 0° 8° (N) 2,547 10.2 -11.6°
Reaches altitude 10° 07:08:02 10° 1° (N) 1,671 9.1 -11.3°
Maximum altitude 07:11:27 43° 290° (WNW) 701 6.9 -10.8°
Drops below altitude 10° 07:14:54 10° 218° (SW) 1,684 9.1 -10.3°
Sets 07:17:02 0° 212° (SSW) 2,570 10.1 -10.0°
